This demonstration page uses our WeatherBlox Daily Observations layout. Learn more.

Left ArrowRight Arrow

Hourly Observations for January 28, 2022

Temp ( °F °C ) Dew Point ( °F °C ) Humidity (%) Winds ( mph kmh ) Pressure ( in mb ) Visibility ( mi km ) Precip ( " mm )
12:15 am 00:15 Cloudy 19 -7 14 -10 79 79 N 5 7 30.57 1035 10 16 0.00 0.00
12:35 am 00:35 Cloudy 19 -7 14 -10 79 79 NNW 10 17 30.58 1036 10 16 0.00 0.00
12:55 am 00:55 Mostly Cloudy 19 -7 12 -11 73 73 N 8 13 30.57 1035 10 16 0.00 0.00
1:15 am 01:15 Cloudy 19 -7 12 -11 73 73 N 7 11 30.57 1035 10 16 0.00 0.00
1:35 am 01:35 Cloudy 19 -7 12 -11 73 73 N 5 7 30.57 1035 10 16 0.00 0.00
1:55 am 01:55 Cloudy 18 -8 10 -12 73 73 NNW 7 11 30.58 1035 10 16 0.00 0.00
2:15 am 02:15 Cloudy 18 -8 9 -13 68 68 N 6 9 30.58 1035 10 16 0.00 0.00
2:35 am 02:35 Cloudy 18 -8 9 -13 68 68 NNW 5 7 30.58 1035 10 16 0.00 0.00
2:55 am 02:55 Cloudy 18 -8 9 -13 68 68 N 9 15 30.58 1035 10 16 0.00 0.00
3:15 am 03:15 Cloudy 18 -8 9 -13 68 68 N 6 9 30.58 1035 10 16 0.00 0.00
3:35 am 03:35 Cloudy with Light Snow 18 -8 9 -13 68 68 N 7 11 30.57 1035 10 16 0.00 0.00
3:55 am 03:55 Cloudy 18 -8 9 -13 68 68 N 3 6 30.56 1035 10 16 0.00 0.00
4:15 am 04:15 Cloudy 18 -8 9 -13 68 68 N 7 11 30.56 1035 10 16 0.00 0.00
4:35 am 04:35 Cloudy 18 -8 9 -13 68 68 N 6 9 30.56 1035 10 16 0.00 0.00
4:55 am 04:55 Cloudy with Light Snow 18 -8 9 -13 68 68 NNE 6 9 30.56 1035 10 16 0.00 0.00
5:15 am 05:15 Cloudy 18 -8 9 -13 68 68 Calm 30.56 1035 10 16 0.00 0.00
5:35 am 05:35 Cloudy with Light Snow 18 -8 9 -13 68 68 Calm 30.56 1035 9 14 0.00 0.00
5:55 am 05:55 Mostly Cloudy 18 -8 9 -13 68 68 NNE 5 7 30.56 1035 10 16 0.00 0.00
6:15 am 06:15 Cloudy 18 -8 9 -13 68 68 Calm 30.56 1035 10 16 0.00 0.00
6:35 am 06:35 Cloudy 18 -8 10 -12 73 73 Calm 30.56 1035 10 16 0.00 0.00
6:55 am 06:55 Cloudy 18 -8 9 -13 68 68 Calm 30.57 1035 10 16 0.00 0.00
7:15 am 07:15 Cloudy 18 -8 9 -13 68 68 Calm 30.57 1035 10 16 0.00 0.00
7:35 am 07:35 Cloudy 18 -8 9 -13 68 68 Calm 30.57 1035 10 16 0.00 0.00
7:55 am 07:55 Cloudy 18 -8 9 -13 68 68 Calm 30.57 1035 10 16 0.00 0.00
8:15 am 08:15 Cloudy 18 -8 9 -13 68 68 Calm 30.56 1035 10 16 0.00 0.00
8:35 am 08:35 Cloudy 18 -8 9 -13 68 68 Calm 30.56 1035 10 16 0.00 0.00
8:55 am 08:55 Cloudy 18 -8 9 -13 68 68 SSW 3 6 30.56 1035 10 16 0.00 0.00
9:15 am 09:15 Partly Cloudy 18 -8 9 -13 68 68 SSW 3 6 30.57 1035 10 16 0.00 0.00
9:35 am 09:35 Mostly Sunny 19 -7 10 -12 68 68 SW 6 9 30.56 1035 10 16 0.00 0.00
9:55 am 09:55 Mostly Cloudy 21 -6 12 -11 68 68 SW 7 11 30.55 1035 10 16 0.00 0.00
10:15 am 10:15 Cloudy 21 -6 12 -11 68 68 SSW 8 13 30.55 1035 10 16 0.00 0.00
10:35 am 10:35 Cloudy 23 -5 10 -12 58 58 SSW 7 11 30.54 1034 10 16 0.00 0.00
10:55 am 10:55 Cloudy 25 -4 12 -11 59 59 SW 6 9 30.55 1034 10 16 0.00 0.00
11:15 am 11:15 Cloudy 25 -4 14 -10 63 63 SSW 6 9 30.54 1034 10 16 0.00 0.00
11:35 am 11:35 Mostly Cloudy 27 -3 16 -9 64 64 SSW 8 13 30.52 1033 10 16 0.00 0.00
11:55 am 11:55 Mostly Sunny 28 -2 16 -9 59 59 SSW 8 13 30.49 1033 10 16 0.00 0.00
12:15 pm 12:15 Sunny 30 -1 18 -8 59 59 SW 9 15 30.47 1032 10 16 0.00 0.00
12:35 pm 12:35 Sunny 30 -1 18 -8 59 59 SW 8 13 30.46 1032 10 16 0.00 0.00
12:55 pm 12:55 Sunny 32 0 18 -8 55 55 SSW 9 15 30.45 1031 10 16 0.00 0.00
1:15 pm 13:15 Sunny 34 1 19 -7 56 56 SSW 7 11 30.43 1031 10 16 0.00 0.00
1:35 pm 13:35 Sunny 36 2 19 -7 52 52 SW 10 17 30.41 1030 10 16 0.00 0.00
1:55 pm 13:55 Sunny 36 2 19 -7 52 52 SW 7 11 30.40 1030 10 16 0.00 0.00
2:15 pm 14:15 Sunny 37 3 19 -7 48 48 SW 8 13 30.38 1029 10 16 0.00 0.00
2:35 pm 14:35 Sunny 37 3 19 -7 48 48 SSW 8 13 30.37 1028 10 16 0.00 0.00
2:55 pm 14:55 Sunny 39 4 19 -7 45 45 SW 10 17 30.35 1028 10 16 0.00 0.00
3:15 pm 15:15 Sunny 39 4 19 -7 45 45 SSW 12 19 30.34 1027 10 16 0.00 0.00
3:35 pm 15:35 Sunny 39 4 19 -7 45 45 SW 8 13 30.33 1027 10 16 0.00 0.00
3:55 pm 15:55 Sunny 41 5 19 -7 42 42 SSW 9 15 30.32 1027 10 16 0.00 0.00
4:15 pm 16:15 Sunny 41 5 19 -7 42 42 SSW 9 15 30.31 1027 10 16 0.00 0.00
4:35 pm 16:35 Sunny 41 5 19 -7 42 42 SSW 9 15 30.31 1027 10 16 0.00 0.00
4:55 pm 16:55 Sunny 39 4 19 -7 45 45 SSW 9 15 30.31 1026 10 16 0.00 0.00
5:15 pm 17:15 Sunny 37 3 19 -7 48 48 SSW 7 11 30.32 1027 10 16 0.00 0.00
5:35 pm 17:35 Sunny 36 2 19 -7 52 52 SSW 7 11 30.31 1027 10 16 0.00 0.00
5:55 pm 17:55 Clear 34 1 19 -7 56 56 S 8 13 30.32 1027 10 16 0.00 0.00
6:15 pm 18:15 Clear 34 1 19 -7 56 56 S 8 13 30.31 1026 10 16 0.00 0.00
6:35 pm 18:35 Clear 30 -1 19 -7 64 64 S 8 13 30.31 1027 10 16 0.00 0.00
6:55 pm 18:55 Clear 30 -1 19 -7 64 64 S 9 15 30.30 1026 10 16 0.00 0.00
7:15 pm 19:15 Clear 30 -1 19 -7 64 64 S 9 15 30.30 1026 10 16 0.00 0.00
7:35 pm 19:35 Clear 30 -1 19 -7 64 64 S 10 17 30.29 1026 10 16 0.00 0.00
7:55 pm 19:55 Clear 28 -2 18 -8 64 64 S 10 17 30.29 1026 10 16 0.00 0.00
8:15 pm 20:15 Clear 28 -2 18 -8 64 64 S 10 17 30.29 1026 10 16 0.00 0.00
8:35 pm 20:35 Clear 28 -2 18 -8 64 64 S 10 17 30.28 1025 10 16 0.00 0.00
8:55 pm 20:55 Clear 27 -3 18 -8 69 69 S 9 15 30.29 1026 10 16 0.00 0.00
9:15 pm 21:15 Clear 27 -3 18 -8 69 69 S 10 17 30.28 1025 10 16 0.00 0.00
9:35 pm 21:35 Clear 27 -3 18 -8 69 69 S 9 15 30.27 1025 10 16 0.00 0.00
9:55 pm 21:55 Clear 27 -3 18 -8 69 69 SSW 10 17 30.26 1025 10 16 0.00 0.00
10:15 pm 22:15 Clear 27 -3 18 -8 69 69 SSW 12 19 30.25 1024 10 16 0.00 0.00
10:35 pm 22:35 Clear 25 -4 18 -8 74 74 SSW 9 15 30.26 1025 10 16 0.00 0.00
10:55 pm 22:55 Clear 25 -4 18 -8 74 74 SSW 12 19 30.25 1024 10 16 0.00 0.00
11:15 pm 23:15 Clear 25 -4 18 -8 74 74 SSW 9 15 30.24 1024 10 16 0.00 0.00
11:35 pm 23:35 Clear 23 -5 18 -8 80 80 SW 7 11 30.24 1024 10 16 0.00 0.00
11:55 pm 23:55 Clear 23 -5 18 -8 80 80 SW 9 15 30.23 1024 10 16 0.00 0.00

Powered by AerisWeather